Flag for U.S.A. Weather past 2 weeks in Narragansett, Rhode Island, U.S.A.

Now
63 °F

Overcast.


Feels Like: 63 °F
Forecast: 59 / 71 °F
Wind: 13 mph from Southwest

Location: Newport State Airport

Current Time: May 27, 2015 at 7:01:10 PM

Latest Report: May 27, 2015 at 5:53 PM


Visibility: 10 mi

Pressure: 30.16 "Hg

Humidity: 87%

Dew point: 59 °F

Location of NarragansettLocation

Historic Weather in Narragansett — Graph

°F

Narragansett temperature yesterday

Maximum temperature yesterday: 66 °F (at 2:53 PM)
Minimum temperature yesterday: 57 °F (at 2:53 AM)
Average temperature yesterday: 61 °F

Past Weeks' High & Low Weather Summary

 TemperatureHumidityPressure
High79 °F (May 17, 12:53 PM)100% (May 17, 1:53 AM)30.34 "Hg (May 17, 1:53 AM)
Low46 °F (May 14, 1:53 AM)28% (May 14, 12:53 PM)29.71 "Hg (May 12, 6:53 PM)
Average58 °F70%30.12 "Hg
* Reported May 12 5:53 PM — May 27 5:53 PM, Narragansett, Weather by CustomWeather, © 2015

Note: Actual official high and low records may vary slightly from our data, if they occured in-between our weather recording intervals... More about our weather records

Advertising

Narragansett weather history for previous 24 hours

 ConditionsComfort  
Time TempWeatherWind HumidityBarometerVisibility
5:53 PM
Wed, May 27
63 °FOvercast.13 mph87%30.16 "Hg10 mi
4:53 PM63 °FOvercast.8 mph84%30.17 "Hg10 mi
3:53 PM65 °FOvercast.10 mph81%30.17 "Hg10 mi
2:53 PM64 °FOvercast.13 mph84%30.18 "Hg10 mi
1:53 PM64 °FLow clouds.14 mph84%30.19 "Hg10 mi
12:53 PM64 °FLow clouds.10 mph84%30.21 "Hg10 mi
11:53 AM64 °FLow clouds.14 mph84%30.22 "Hg10 mi
10:53 AM64 °FLow clouds.14 mph81%30.22 "Hg10 mi
9:53 AM64 °FLow clouds.8 mph81%30.21 "Hg10 mi
8:53 AM63 °FLow clouds.10 mph84%30.22 "Hg10 mi
7:53 AM62 °FOvercast.10 mph86%30.22 "Hg10 mi
6:53 AM60 °FPartly sunny.10 mph93%30.21 "Hg10 mi
5:53 AM60 °FPassing clouds.8 mph93%30.21 "Hg10 mi
5:00 AM59 °FPassing clouds.7 mph93%30.20 "Hg10 mi
3:53 AM59 °FClear.8 mph93%30.19 "Hg10 mi
2:53 AM58 °FClear.7 mph93%30.19 "Hg10 mi
1:53 AM57 °FClear.8 mph96%30.20 "Hg10 mi
12:53 AM58 °FClear.6 mph93%30.21 "Hg10 mi
11:53 PM
Tue, May 26
59 °FClear.7 mph90%30.21 "Hg10 mi
10:53 PM60 °FClear.10 mph90%30.20 "Hg10 mi
9:53 PM60 °FClear.9 mph86%30.19 "Hg10 mi
8:53 PM59 °FSunny.N/A90%30.18 "Hg10 mi
7:53 PM61 °FSunny.7 mph87%30.17 "Hg10 mi
Weather by CustomWeather, © 2015

See weather overviewHow to use our weather pages